STARLINK AJ

Last updated on Sat Jul 15 2023 00:02:05 GMT+0000 (Coordinated Universal Time)

1 57250U 23094AJ 23195.75001157 -.01068946 34074-3 -30407-2 0 9996 2 57250 42.9953 276.0453 0025363 200.2912 242.5131 15.91819456 1306

Satellite not in orbit